SCP
0 0 0 0 0 0 0 0 0 0 0 0 0 0 0 0 0 0 0 0 0 0 0 0 0 0 0 0 0 0 0 0 0 0 1 1 0 0
0 0 0 0 0 0 0 0 0 0 0 0 0 0 0 0 0 0 0 0 0 0 0 0 0 0 0 0 0 0 0 0 0 0 1 0 0 0
0 0 0 0 0 0 0 0 0 0 0 0 0 0 0 0 0 0 0 0 0 0 0 0 0 0 0 0 0 0 0 0 0 0 0 0 0 0
0 0 0 0 0 0 0 0 0 0 0 0 0 0 0 0 0 0 0 0 0 0 0 0 0 0 0 0 0 0 0 0 0 0 0 0 0 0
0 0 0 0 0 0 0 0 0 0 0 0 0 0 0 0 0 0 0 0 0 0 0 0 0 0 0 0 0 0 0 0 0 0 0 0 0 0
0 0 0 0 0 0 0 0 0 0 0 0 0 0 0 0 0 0 0 0 0 0 0 0 0 0 0 0 0 0 0 0 0 0 0 0 0 0
0 0 0 0 0 0 0 0 0 0 0 0 0 0 0 0 0 0 0 0 0 0 0 0 0 0 0 0 0 0 0 0 0 0 0 0 0 0
0 0 0 0 0 0 0 0 0 0 0 0 0 0 0 0 0 0 0 0 0 0 0 0 0 0 0 0 0 0 0 0 0 0 0 0 0 0
0 0 0 0 0 0 0 0 0 0 0 0 0 0 0 0 0 0 0 0 0 0 0 0 0 0 0 0 0 0 0 0 0 0 0 0 0 0
0 0 0 0 0 0 0 0 0 0 0 0 0 0 0 0 0 0 0 0 0 0 0 0 0 0 0 0 0 0 0 0 0 0 0 0 0 0
0 0 0 0 0 0 0 0 0 0 0 0 0 0 0 0 0 0 0 0 0 0 0 0 0 0 0 0 0 0 0 0 0 0 0 0 0 0
0 0 0 0 0 0 0 0 0 0 0 0 0 0 0 0 0 0 0 0 0 0 0 0 0 0 0 0 0 0 0 0 0 0 0 0 0 0
0 0 0 0 0 0 0 0 0 0 0 0 0 0 0 0 0 0 0 0 0 0 0 0 0 0 0 0 0 0 0 0 0 0 0 0 0 0
0 0 0 0 0 0 0 0 0 0 0 0 0 0 0 0 0 0 0 0 0 0 0 0 0 0 0 0 0 0 0 0 0 0 0 0 0 0
0 0 0 0 0 0 0 0 0 0 0 0 0 0 0 0 0 0 0 0 0 0 0 0 0 0 0 0 0 0 0 0 0 0 0 0 0 0
0 0 0 0 0 0 0 0 0 0 0 0 0 0 0 0 0 0 0 0 0 0 0 0 0 0 0 0 0 0 0 0 0 0 0 0 0 0
0 0 0 0 0 0 0 0 0 0 0 0 0 0 0 0 0 0 0 0 0 0 0 0 0 0 0 0 0 0 0 0 0 0 0 0 0 0
0 0 0 0 0 0 0 0 0 0 0 0 0 0 0 0 0 0 0 0 0 0 0 0 0 0 0 0 0 0 0 0 0 0 0 0 0 0
0 0 0 0 0 0 0 0 0 0 0 0 0 0 0 0 0 0 0 0 0 0 0 0 0 0 0 0 0 0 0 0 0 0 0 0 0 0
0 0 0 0 0 0 0 0 0 0 0 0 0 0 0 0 0 0 0 0 0 0 0 0 0 0 0 0 0 0 0 0 0 0 0 0 0 0
0 0 0 0 0 0 0 0 0 0 0 0 0 0 0 0 0 0 0 0 0 0 0 0 0 0 0 0 0 0 0 0 0 0 0 0 0 0
0 0 0 0 0 0 0 0 0 0 0 0 0 0 0 0 0 0 0 0 0 0 0 0 0 0 0 0 0 0 0 0 0 0 0 0 0 0
0 0 0 0 0 0 0 0 0 0 0 0 0 0 0 0 0 0 0 0 0 0 0 0 0 0 0 0 0 0 0 0 0 0 0 0 0 0
Wind_Speed
2 2 2 1 2 1 2 2 3 2 3 3 2 2 2 2 3 2 2 4 5 5 5 4 3 4 4 5 5 5 5 4 5 6 7 7 7 7
2 2 2 1 1 1 1 1 2 2 3 2 2 2 1 2 3 2 3 5 6 6 5 4 4 5 6 6 6 5 5 4 5 6 7 7 7 8
1 2 2 2 2 1 1 1 1 1 2 2 1 1 1 1 2 1 2 2 3 6 6 5 5 5 6 6 6 6 6 6 7 7 8 8 8 8
2 2 2 2 2 2 2 2 2 2 2 3 2 1 1 2 2 2 2 2 2 5 6 6 5 6 6 7 7 7 7 6 7 7 8 8 9 9
2 3 3 3 3 2 2 2 2 2 2 2 2 1 1 1 1 2 2 2 2 4 5 6 6 6 6 7 7 6 6 6 6 7 7 8 8 9
2 2 2 3 3 3 3 3 2 2 2 2 1 1 1 1 0 1 2 2 2 2 4 4 5 6 7 7 6 6 6 6 7 7 7 7 7 8
2 2 2 2 3 3 2 3 3 2 2 2 1 1 1 1 2 2 2 2 2 2 1 2 2 2 3 5 6 6 7 7 7 7 7 7 7 8
2 2 2 2 3 3 3 3 3 3 3 3 3 3 3 3 2 2 1 1 3 1 1 2 1 2 2 2 5 6 6 7 6 6 6 7 7 7
2 2 1 1 2 2 2 2 2 3 4 4 4 4 4 4 3 2 2 3 3 2 1 2 1 2 2 3 6 7 7 7 6 6 6 7 7 8
1 2 2 2 1 2 2 1 1 2 3 3 4 4 3 3 4 4 4 2 1 1 1 2 2 2 2 2 6 7 7 7 6 6 7 7 8 8
1 1 1 2 2 2 2 2 1 2 2 2 2 2 2 2 2 1 1 1 2 2 1 2 2 1 2 2 3 6 6 6 7 7 8 8 8 8
1 1 2 2 2 2 2 2 3 3 2 1 2 2 2 2 2 3 3 2 2 2 2 2 1 0 2 2 1 2 3 5 7 8 8 8 8 4
1 2 2 3 3 3 3 3 3 3 1 1 1 1 1 1 1 2 2 2 3 3 2 2 2 1 2 2 2 2 2 2 3 4 6 8 9 6
2 2 2 3 3 3 3 2 2 1 1 1 1 1 1 2 1 2 2 2 2 3 3 3 2 2 2 2 3 2 2 2 2 3 3 5 7 8
2 3 3 3 3 2 2 2 1 1 1 1 2 2 2 2 1 1 1 1 1 1 2 2 3 2 3 4 3 3 2 3 2 2 2 3 3 3
2 2 3 2 2 2 2 1 1 1 2 2 2 2 1 1 1 1 1 1 1 2 1 1 2 3 3 4 4 4 3 3 2 3 3 4 3 3
1 1 1 1 1 1 1 1 1 1 1 1 1 1 1 1 1 1 1 1 2 2 2 1 1 2 3 4 4 5 4 4 4 3 3 4 4 4
1 0 1 1 1 1 2 2 1 1 2 1 1 2 2 2 2 2 2 2 3 3 3 2 1 1 1 3 5 5 4 4 3 3 3 4 5 4
1 1 1 1 2 2 2 2 2 2 2 2 2 2 2 2 2 2 2 2 3 3 3 2 2 2 3 4 3 4 4 3 3 3 3 4 5 5
1 1 2 2 2 2 2 2 2 2 2 2 2 2 2 2 3 3 3 3 3 3 3 2 3 3 4 4 3 3 5 4 4 4 3 3 4 6
2 2 2 2 2 2 2 2 2 2 2 2 2 2 2 3 3 3 3 4 3 2 3 4 4 4 2 1 2 3 3 5 5 4 3 3 3 3
2 2 2 2 2 2 2 2 2 2 3 2 2 2 3 3 3 3 3 3 3 3 3 3 2 1 2 3 4 4 3 3 4 6 6 6 3 3
3 3 3 2 2 2 2 2 3 3 3 2 2 3 3 3 3 3 2 2 2 2 2 2 2 1 2 3 3 3 3 3 2 3 3 5 6 8
Wind_Direction
200 197 197 193 183 177 168 177 178 222 251 247 256 258 239 229 239 235 243 256 258 261 266 273 249 236 236 245 241 236 239 239 238 234 236 237 244 244
197 187 195 196 181 175 173 195 196 199 236 243 241 276 269 259 249 238 246 261 261 262 260 257 244 238 238 240 238 238 239 245 247 243 239 239 245 245
201 194 206 196 187 190 186 189 200 193 230 270 280 294 266 268 282 263 258 254 260 262 256 248 245 239 234 236 237 234 237 243 246 247 247 245 246 248
222 208 222 206 203 200 196 203 210 210 211 248 266 263 261 266 265 267 277 269 258 264 257 248 246 240 232 234 235 238 240 240 244 249 248 249 251 253
221 219 223 206 216 212 207 209 212 215 214 222 251 263 279 305 306 292 285 282 276 268 262 252 246 245 237 237 236 238 235 238 244 249 250 253 257 258
227 224 221 214 219 213 213 214 206 203 206 217 235 252 262 280 260 272 288 286 286 288 265 260 255 253 249 245 241 241 237 239 244 246 250 256 261 263
240 236 230 228 227 215 212 207 200 206 208 220 235 248 243 236 235 227 244 283 285 263 270 271 261 260 256 257 251 247 244 246 248 249 251 255 259 264
240 254 248 236 237 228 220 208 200 206 213 217 228 235 240 233 224 216 205 250 273 250 214 268 228 252 260 252 256 256 253 251 251 253 256 261 263 264
239 246 264 266 240 219 219 224 226 227 219 216 223 233 235 221 200 212 216 225 241 232 198 259 234 248 256 260 264 263 258 253 252 254 257 261 265 267
249 229 231 249 231 204 196 201 235 250 241 229 229 237 235 219 205 213 218 230 286 282 188 243 252 254 276 271 269 256 248 247 251 257 260 262 266 269
299 277 239 235 239 207 189 204 247 271 279 258 258 272 260 228 199 174 181 201 254 255 209 220 245 271 278 268 268 262 258 260 264 266 268 267 270 274
308 305 300 286 267 231 206 209 240 259 265 288 304 317 296 247 215 208 204 210 231 245 211 201 225 236 293 278 271 279 277 269 267 268 270 271 271 266
288 293 290 293 282 260 237 226 238 244 235 230 274 302 317 291 248 235 219 211 218 234 200 179 202 205 222 276 288 269 254 265 272 270 269 267 265 260
269 269 276 280 269 265 260 266 265 256 208 183 254 273 274 273 271 251 245 243 240 235 212 193 201 205 220 257 268 275 274 265 259 265 261 265 267 269
272 278 286 280 273 269 273 276 262 229 206 218 238 250 253 256 262 279 291 280 295 285 231 213 208 211 218 239 253 258 278 274 251 250 256 257 256 254
276 279 289 293 291 303 299 279 248 223 221 232 244 256 262 257 253 247 257 269 284 296 297 248 227 214 231 245 247 257 248 251 256 259 269 265 255 241
281 306 323 313 309 310 303 287 266 253 250 245 244 253 257 256 266 264 244 236 241 250 266 277 267 246 238 236 250 250 249 254 252 252 262 270 263 245
305 281 273 269 265 271 275 274 261 250 249 247 238 238 247 250 256 261 257 238 243 248 248 249 264 307 296 267 233 241 246 251 258 255 249 259 272 261
286 267 262 266 271 265 262 259 257 253 243 236 236 236 237 243 248 247 246 255 255 253 247 232 219 210 247 268 265 228 234 255 266 267 254 245 263 271
311 285 278 273 271 269 264 261 258 256 246 244 240 237 235 237 241 239 236 241 253 257 254 242 225 219 226 242 255 267 252 244 247 256 264 270 271 274
314 296 285 277 274 270 268 260 252 250 249 241 237 236 233 233 240 236 235 247 257 250 251 251 245 251 245 223 265 273 269 257 253 247 250 269 281 278
316 305 297 289 280 272 269 258 251 249 244 241 239 236 232 226 230 229 228 234 244 246 256 268 265 249 216 230 254 267 282 296 292 284 267 244 233 234
312 304 297 292 280 269 263 256 254 252 245 237 234 232 225 229 226 224 228 235 242 248 258 266 277 260 247 240 251 267 279 295 309 315 301 282 269 268